Kuiper-00080

operational
NORAD ID: 64827 Int'l Des: 2025-151 Owner: KUIP Country: US Constellation: kuiper
LEOCIRCULAR

Kuiper-00080について

説明を読み込み中...

リアルタイム位置

3D地球を読み込み中...

次回通過

高度履歴

Altitude vs Time

uPlot chart will show altitude changes over time

軌道要素

1 64827U 25151M 25340.73761272 .00009489 00000-0 12694-2 0 9994
2 64827 51.9011 351.6071 0005917 307.1076 52.9345 14.80014853 21549
Epoch: Dec 6, 2025 • Age: 15 hours

現在のステータス

高度 632.4 km
速度 7.54 km/s
衛星直下点 6.53°N, 48.65°W
打ち上げ日 Jul 16, 2025
運用期間 0.3 years
タイプ internet

技術仕様

分類 Payload
質量 490.00 kg
乾燥質量 490.00 kg
総質量 490.00 kg
長さ 1.80 m
直径 0.70 m
スパン 5.00 m
形状 Box + 2 pan
製造者 KUIP
バスタイプ Kuiper
フェーズステータス In Orbit
所有者/国 KUIP/US

大規模コンステレーション

Loading constellations...